[[{"header":{"parameterUnit":"m.s-1","parameterCategory":1,"la1":30.2991,"la2":30.254,"lo1":-89.0895,"lo2":-89.0444,"dy":0.0017,"dx":0.0017,"nx":28,"ny":28,"refTime":"2024-07-04T21:00:00:Z","depth":0,"parameterNumber":2,"parameterNumberName":"U-component_of_WINDS"},"data":[0,0,0,0,0,0,0,0,0,0,0,0,0,0,0,0,0,0,0,0,0,0,0,0,0,0,0,0,0,0,0,0,0,0,0,0,0,0,0,0,0,0,0,0,0,0,0,0,0,0,0,0,0,0,0,0,0,0,4.5405,4.5407,0,4.5582,4.5584,4.5586,4.5528,4.5524,4.5521,4.5517,4.5703,4.5711,4.572,0,0,0,0,0,0,0,0,0,0,0,0,0,4.5022,4.5029,4.5405,4.5407,4.541,4.5582,4.5584,4.5587,4.5529,4.5524,4.552,4.5515,4.57,4.571,4.5721,0,0,0,0,0,0,0,0,0,0,0,0,0,4.5193,4.5031,4.5405,4.5401,4.5403,4.5581,4.5584,4.5587,4.553,4.5524,4.5518,4.5513,4.5697,4.5709,4.5722,4.5916,0,0,4.5761,4.5767,0,0,0,0,0,0,0,0,4.5183,4.5207,4.54,4.5402,4.5404,4.5527,4.5517,4.5698,4.5531,4.5482,4.5517,4.551,4.565,4.5666,4.5712,4.5925,4.5933,4.5762,4.577,4.5776,4.5779,0,0,0,0,0,0,0,4.5171,4.5199,4.5475,4.5403,4.5405,4.5392,4.541,4.5551,4.5596,4.5486,4.5482,4.5503,4.565,4.57,4.5716,4.5936,4.5762,4.5773,4.5781,4.5786,4.6317,4.6323,0,0,0,0,0,0,4.5157,4.5189,4.547,4.5481,4.5277,4.5404,4.5424,4.5494,4.5594,4.5604,4.5508,4.55,4.5681,4.5701,4.5722,4.5956,4.5775,4.5787,4.5795,4.6311,4.6318,4.6325,0,0,0,0,0,0,4.5149,4.5183,4.5463,4.5334,4.5369,4.5417,4.5495,4.55,4.555,4.5611,4.5619,4.5551,4.5677,4.5704,4.5868,4.5962,4.5793,4.5805,4.6303,4.6313,4.6322,4.6425,0,0,0,0,0,0,4.5139,4.518,4.5254,4.5336,4.5376,4.5605,4.5501,4.5508,4.5572,4.5563,4.5653,4.5663,4.5674,4.5849,4.5881,4.5976,4.5815,4.6295,4.6308,4.6319,4.6414,4.6437,4.6457,0,0,0,0,0,4.5125,4.5277,4.5258,4.5292,4.5468,4.561,4.5633,4.5642,4.5579,4.5654,4.5693,4.566,4.5946,4.5867,4.5902,4.6002,4.6289,4.6304,4.6318,4.6404,4.6433,4.6457,0,0,0,0,0,0,4.5206,4.5288,4.5267,4.545,4.5523,4.56,4.5694,4.5672,4.5766,4.5754,4.5762,4.5783,4.5952,4.5993,4.5903,4.6195,4.6109,4.6131,4.6162,4.619,4.6211,4.6198,4.5825,0,0,0,0,0,4.5245,4.5352,4.5418,4.5573,4.5611,4.5646,4.5709,4.5709,4.5786,4.5817,4.5868,4.5946,4.6053,4.6124,4.6226,4.6419,4.6439,4.6506,4.6528,4.6545,4.6565,4.667,4.6701,4.6373,4.6373,4.6372,0,0,4.5327,4.5385,4.5452,4.5591,4.5647,4.5759,4.5673,4.5795,4.5879,4.5836,4.5993,4.6034,4.6121,4.63,4.6382,4.634,4.6659,4.6564,4.6577,4.6587,4.6688,4.6719,4.6747,4.6383,4.6381,4.6379,0,0,4.5533,4.5588,4.5722,4.5781,4.5867,4.589,4.5922,4.6003,4.6027,4.6185,4.6155,4.6255,4.644,4.6503,4.6559,4.6789,4.6762,4.6823,4.6937,4.7039,4.7065,4.7088,4.717,4.72,4.6841,4.6842,4.6842,0,4.5625,4.579,4.5795,4.5919,4.5981,4.5946,4.6084,4.6141,4.6257,4.6301,4.6253,4.6483,4.6539,4.6733,4.6789,4.6836,4.6874,4.6812,4.7061,4.7084,4.7105,4.7184,4.7215,4.6848,4.6848,4.6847,4.6846,0,4.5899,4.6014,4.6113,4.6224,4.6297,4.6428,4.6453,4.6527,4.6521,4.6549,4.6711,4.6777,4.6891,4.6937,4.6934,4.7131,4.7102,4.7057,4.697,4.7143,4.7217,4.7247,4.6858,4.6856,4.6854,4.6852,0,0,4.6161,4.6272,4.6309,4.6358,4.6451,4.6541,4.6671,4.6781,4.6844,4.6926,4.7035,4.7192,4.715,4.7214,4.7217,4.7307,4.7485,4.7251,4.7254,4.7293,4.7707,4.774,4.7775,4.7468,4.7473,4.7478,4.77,0,4.6375,4.66,4.6608,4.6814,4.6921,4.6889,4.7002,4.7071,4.7101,4.7198,4.7231,4.7342,4.7279,4.7317,4.7405,4.7445,4.7569,4.7429,4.757,4.7575,4.7549,4.7813,4.7849,4.8055,4.7728,4.7733,4.7737,0,4.6655,4.6743,4.6959,4.7036,4.7081,4.7182,4.7284,4.7376,4.7455,4.747,4.7541,4.7531,4.7664,4.7573,4.7757,4.7662,4.772,4.7748,4.7756,4.777,4.7667,4.7834,4.8121,4.8152,4.7782,4.7779,4.7776,0,4.6825,4.6998,4.7149,4.7193,4.7287,4.7358,4.7401,4.7474,4.754,4.7629,4.7672,4.7777,4.7834,4.7916,4.7935,4.7866,4.8119,4.8029,4.8136,4.8136,4.8191,4.8188,4.8491,4.8229,4.8229,4.8228,4.8227,0,4.7063,4.7197,4.7227,4.732,4.7469,4.7477,4.7625,4.7663,4.7728,4.7829,4.7808,4.7904,4.7922,4.8023,4.8038,4.8188,4.8215,4.8232,4.8234,4.8234,4.8231,4.8272,4.8258,4.8236,4.8234,4.8233,4.8231,0,4.7278,4.7304,4.7467,4.7541,4.7563,4.767,4.7734,4.7824,4.7851,4.7979,4.801,4.8053,4.817,4.8196,4.8335,4.8346,4.8524,4.8513,4.8497,4.8496,4.8602,4.8592,4.8942,4.8989,4.8696,4.8699,4.8701,0,4.7428,4.753,4.7615,4.768,4.7726,4.7831,4.7898,4.791,4.798,4.8077,4.8156,4.827,4.8361,4.8549,4.8594,4.87,4.8692,4.8807,4.8708,4.8703,4.8693,4.8687,4.8697,4.8826,4.8829,4.8832,4.8834,0,4.7693,4.77,4.7795,4.7896,4.7975,4.8056,4.8132,4.8187,4.821,4.829,4.8408,4.8479,4.862,4.8733,4.884,4.8885,4.8865,4.8865,4.8895,4.8896,4.8882,4.8891,4.8549,4.8857,4.8855,4.8853,4.8852,4.8851,4.788,4.7969,4.8042,4.8149,4.8208,4.8279,4.8367,4.8405,4.8502,4.8617,4.8618,4.8747,4.8824,4.8964,4.9016,4.9117,4.9082,4.9126,4.9137,4.9148,4.9157,4.8866,4.9137,4.9136,4.9136,4.9135,4.9135,0,4.8143,4.8188,4.8287,4.8393,4.8478,4.8449,4.8532,4.8605,4.8718,4.879,4.888,4.9015,4.9125,4.9178,4.9287,4.9358,4.9351,4.9386,4.9381,4.9392,4.9183,4.9146,4.939,4.939,4.939,4.939,4.939,4.939,4.829,4.8438,4.8454,4.8631,4.8676,4.88,4.885,4.8917,4.8974,4.9126,4.9216,4.9249,4.9314,4.9427,4.9527,4.954,4.9581,4.9621,4.9629,4.9433,4.9407,4.9382,4.9347,4.963,4.963,4.983,4.9832,4.9833]},{"header":{"parameterUnit":"m.s-1","parameterCategory":1,"la1":30.2991,"la2":30.254,"lo1":-89.0895,"lo2":-89.0444,"dy":0.0017,"dx":0.0017,"nx":28,"ny":28,"refTime":"2024-07-04T21:00:00:Z","depth":0,"parameterNumber":3,"parameterNumberName":"V-component_of_WINDS"},"data":[0,0,0,0,0,0,0,0,0,0,0,0,0,0,0,0,0,0,0,0,0,0,0,0,0,0,0,0,0,0,0,0,0,0,0,0,0,0,0,0,0,0,0,0,0,0,0,0,0,0,0,0,0,0,0,0,0,0,-0.307,-0.307,0,-0.3061,-0.3061,-0.3061,-0.3063,-0.3064,-0.3064,-0.3064,-0.3053,-0.3053,-0.3052,0,0,0,0,0,0,0,0,0,0,0,0,0,-0.3089,-0.3088,-0.307,-0.307,-0.307,-0.3061,-0.3061,-0.3061,-0.3063,-0.3064,-0.3064,-0.3064,-0.3053,-0.3053,-0.3052,0,0,0,0,0,0,0,0,0,0,0,0,0,-0.308,-0.3088,-0.307,-0.307,-0.307,-0.3061,-0.3061,-0.3061,-0.3063,-0.3064,-0.3064,-0.3064,-0.3054,-0.3053,-0.3052,-0.3043,0,0,-0.305,-0.305,0,0,0,0,0,0,0,0,-0.3081,-0.3079,-0.307,-0.307,-0.307,-0.3064,-0.3064,-0.3055,-0.3063,-0.3066,-0.3064,-0.3064,-0.3056,-0.3056,-0.3053,-0.3042,-0.3042,-0.305,-0.305,-0.3049,-0.3049,0,0,0,0,0,0,0,-0.3081,-0.308,-0.3067,-0.307,-0.307,-0.307,-0.3069,-0.3062,-0.306,-0.3066,-0.3066,-0.3065,-0.3056,-0.3054,-0.3053,-0.3041,-0.305,-0.305,-0.3049,-0.3049,-0.3023,-0.3022,0,0,0,0,0,0,-0.3082,-0.308,-0.3067,-0.3066,-0.3076,-0.307,-0.3069,-0.3065,-0.306,-0.3059,-0.3065,-0.3065,-0.3055,-0.3054,-0.3053,-0.3041,-0.3049,-0.3049,-0.3048,-0.3023,-0.3023,-0.3022,0,0,0,0,0,0,-0.3082,-0.3081,-0.3067,-0.3073,-0.3072,-0.3069,-0.3065,-0.3065,-0.3063,-0.3059,-0.3058,-0.3062,-0.3055,-0.3054,-0.3045,-0.3041,-0.3049,-0.3048,-0.3023,-0.3023,-0.3022,-0.3018,0,0,0,0,0,0,-0.3083,-0.3081,-0.3077,-0.3073,-0.3071,-0.306,-0.3065,-0.3065,-0.3062,-0.3062,-0.3057,-0.3056,-0.3055,-0.3046,-0.3045,-0.304,-0.3047,-0.3024,-0.3023,-0.3022,-0.3019,-0.3017,-0.3017,0,0,0,0,0,-0.3084,-0.3076,-0.3077,-0.3075,-0.3067,-0.306,-0.3059,-0.3058,-0.3061,-0.3057,-0.3055,-0.3056,-0.3042,-0.3045,-0.3044,-0.3039,-0.3024,-0.3023,-0.3023,-0.3019,-0.3018,-0.3017,0,0,0,0,0,0,-0.3079,-0.3075,-0.3077,-0.3068,-0.3064,-0.306,-0.3056,-0.3057,-0.3052,-0.3052,-0.3052,-0.305,-0.3042,-0.304,-0.3044,-0.3029,-0.3033,-0.3032,-0.3031,-0.303,-0.3029,-0.303,-0.3047,0,0,0,0,0,-0.3077,-0.3072,-0.3069,-0.3061,-0.306,-0.3058,-0.3055,-0.3055,-0.3051,-0.3049,-0.3047,-0.3042,-0.3037,-0.3033,-0.3028,-0.3018,-0.3017,-0.3014,-0.3013,-0.3012,-0.3011,-0.3007,-0.3005,-0.302,-0.302,-0.302,0,0,-0.3072,-0.307,-0.3067,-0.306,-0.3058,-0.3052,-0.3057,-0.3051,-0.3047,-0.3048,-0.3041,-0.3038,-0.3034,-0.3025,-0.3021,-0.3023,-0.3007,-0.3012,-0.3011,-0.301,-0.3006,-0.3004,-0.3003,-0.302,-0.302,-0.302,0,0,-0.3061,-0.3059,-0.3053,-0.305,-0.3047,-0.3046,-0.3044,-0.304,-0.3039,-0.3032,-0.3033,-0.3028,-0.3019,-0.3016,-0.3013,-0.3002,-0.3003,-0.3,-0.2995,-0.299,-0.2989,-0.2988,-0.2984,-0.2983,-0.2999,-0.2999,-0.2999,0,-0.3056,-0.3049,-0.3049,-0.3043,-0.3041,-0.3043,-0.3036,-0.3034,-0.3028,-0.3026,-0.3028,-0.3017,-0.3014,-0.3005,-0.3002,-0.3,-0.2998,-0.3001,-0.2989,-0.2988,-0.2987,-0.2984,-0.2982,-0.2999,-0.2999,-0.2999,-0.2999,0,-0.3043,-0.3037,-0.3033,-0.3028,-0.3025,-0.3019,-0.3018,-0.3015,-0.3015,-0.3014,-0.3006,-0.3003,-0.2998,-0.2995,-0.2995,-0.2986,-0.2988,-0.299,-0.2993,-0.2986,-0.2982,-0.2981,-0.2999,-0.2999,-0.2999,-0.2999,0,0,-0.3027,-0.3024,-0.3022,-0.3021,-0.3017,-0.3013,-0.3007,-0.3002,-0.2999,-0.2996,-0.2991,-0.2983,-0.2985,-0.2982,-0.2982,-0.2978,-0.297,-0.2981,-0.2981,-0.2979,-0.296,-0.2958,-0.2957,-0.2971,-0.2971,-0.2971,-0.296,0,-0.3016,-0.3007,-0.3007,-0.2998,-0.2993,-0.2996,-0.2991,-0.2988,-0.2987,-0.2983,-0.2981,-0.2976,-0.2979,-0.2977,-0.2974,-0.2972,-0.2966,-0.2973,-0.2966,-0.2966,-0.2967,-0.2955,-0.2953,-0.2944,-0.2959,-0.2959,-0.2959,0,-0.3002,-0.2999,-0.2989,-0.2987,-0.2985,-0.298,-0.2976,-0.2972,-0.2969,-0.2969,-0.2966,-0.2967,-0.2961,-0.2965,-0.2957,-0.2962,-0.2959,-0.2958,-0.2958,-0.2957,-0.2962,-0.2954,-0.2941,-0.2939,-0.2957,-0.2957,-0.2957,0,-0.2992,-0.2985,-0.2979,-0.2977,-0.2974,-0.2971,-0.297,-0.2967,-0.2965,-0.2961,-0.2959,-0.2955,-0.2953,-0.2949,-0.2949,-0.2952,-0.2941,-0.2945,-0.294,-0.294,-0.2937,-0.2937,-0.2924,-0.2936,-0.2936,-0.2936,-0.2936,0,-0.298,-0.2973,-0.2974,-0.297,-0.2964,-0.2965,-0.2958,-0.2957,-0.2955,-0.2951,-0.2953,-0.2948,-0.2948,-0.2944,-0.2944,-0.2937,-0.2936,-0.2936,-0.2936,-0.2935,-0.2936,-0.2934,-0.2934,-0.2936,-0.2936,-0.2936,-0.2936,0,-0.2967,-0.2968,-0.2961,-0.2959,-0.2959,-0.2954,-0.2952,-0.2949,-0.2948,-0.2943,-0.2942,-0.2941,-0.2936,-0.2936,-0.293,-0.293,-0.2922,-0.2923,-0.2923,-0.2923,-0.2918,-0.2919,-0.2903,-0.2901,-0.2914,-0.2914,-0.2914,0,-0.2959,-0.2955,-0.2953,-0.295,-0.2949,-0.2945,-0.2943,-0.2944,-0.2941,-0.2938,-0.2934,-0.293,-0.2927,-0.2919,-0.2918,-0.2914,-0.2914,-0.2909,-0.2913,-0.2914,-0.2914,-0.2914,-0.2914,-0.2908,-0.2908,-0.2907,-0.2907,0,-0.2944,-0.2945,-0.2942,-0.2939,-0.2936,-0.2933,-0.2931,-0.2929,-0.293,-0.2927,-0.2922,-0.292,-0.2914,-0.291,-0.2906,-0.2905,-0.2906,-0.2906,-0.2905,-0.2904,-0.2905,-0.2905,-0.2921,-0.2906,-0.2906,-0.2906,-0.2906,-0.2907,-0.2934,-0.293,-0.2929,-0.2925,-0.2924,-0.2922,-0.2918,-0.2918,-0.2914,-0.2911,-0.2911,-0.2907,-0.2904,-0.2899,-0.2898,-0.2894,-0.2896,-0.2894,-0.2893,-0.2893,-0.2892,-0.2906,-0.2893,-0.2893,-0.2893,-0.2893,-0.2893,0,-0.292,-0.2919,-0.2916,-0.2913,-0.291,-0.2913,-0.291,-0.2908,-0.2904,-0.2902,-0.2899,-0.2894,-0.289,-0.2889,-0.2885,-0.2882,-0.2883,-0.2881,-0.2881,-0.2881,-0.2891,-0.2892,-0.2881,-0.2881,-0.2881,-0.2881,-0.2881,-0.2881,-0.2912,-0.2906,-0.2907,-0.29,-0.29,-0.2895,-0.2894,-0.2892,-0.2891,-0.2885,-0.2882,-0.2882,-0.2881,-0.2877,-0.2873,-0.2873,-0.2872,-0.287,-0.287,-0.2879,-0.288,-0.2881,-0.2883,-0.2869,-0.2869,-0.286,-0.286,-0.286]}]]